Hourly Weather Abasár

Today, 20 October, Tuesday

Time Temperature Precipitation Wind Pressure Humidity
00:00 +9°C° 0 mm 1 mps 749 mmHg 77%
01:00 +9°C° 0 mm 1 mps 749 mmHg 78%
02:00 +8°C° 0 mm 1 mps 749 mmHg 80%
03:00 +8°C° 0 mm 1 mps 748 mmHg 82%
04:00 +8°C° 0 mm 1 mps 748 mmHg 83%
05:00 +7°C° 0 mm 1 mps 749 mmHg 84%
06:00 +7°C° 0 mm 1 mps 749 mmHg 85%
07:00 +7°C° 0 mm 1 mps 749 mmHg 86%
08:00 +9°C° 0 mm 1 mps 749 mmHg 80%
09:00 +10°C° 0 mm 1 mps 749 mmHg 73%
10:00 +12°C° 0 mm 2 mps 749 mmHg 67%
11:00 +12°C° 0 mm 2 mps 749 mmHg 64%
12:00 +13°C° 0 mm 2 mps 749 mmHg 60%
13:00 +14°C° 0 mm 2 mps 749 mmHg 57%
14:00 +13°C° 0 mm 2 mps 748 mmHg 60%
15:00 +13°C° 0 mm 2 mps 748 mmHg 63%
16:00 +12°C° 0 mm 2 mps 748 mmHg 66%
17:00 +10°C° 0 mm 2 mps 748 mmHg 68%
18:00 +9°C° 0 mm 2 mps 748 mmHg 71%
19:00 +8°C° 0 mm 2 mps 748 mmHg 73%
20:00 +8°C° 0 mm 2 mps 747 mmHg 74%
21:00 +8°C° 0 mm 1 mps 747 mmHg 75%
22:00 +8°C° 0 mm 1 mps 747 mmHg 76%
23:00 +8°C° 0 mm 1 mps 747 mmHg 77%

Tomorrow, 21 October, Wednesday

Time Temperature Precipitation Wind Pressure Humidity
00:00 +8°C° 0 mm 1 mps 747 mmHg 77%
01:00 +7°C° 0 mm 1 mps 747 mmHg 77%
02:00 +7°C° 0 mm 1 mps 747 mmHg 78%
03:00 +7°C° 0 mm 1 mps 746 mmHg 79%
04:00 +7°C° 0 mm 1 mps 746 mmHg 81%
05:00 +7°C° 0 mm 1 mps 746 mmHg 81%
06:00 +7°C° 0 mm 1 mps 746 mmHg 81%
07:00 +7°C° 0 mm 1 mps 746 mmHg 81%
08:00 +7°C° 0 mm 2 mps 746 mmHg 76%
09:00 +8°C° 0 mm 2 mps 746 mmHg 71%
10:00 +10°C° 0 mm 2 mps 746 mmHg 66%
11:00 +12°C° 0 mm 2 mps 745 mmHg 63%
12:00 +13°C° 0 mm 2 mps 745 mmHg 60%
13:00 +14°C° 0 mm 2 mps 745 mmHg 58%
14:00 +14°C° 0 mm 2 mps 745 mmHg 61%
15:00 +13°C° 0 mm 2 mps 744 mmHg 64%
16:00 +13°C° 0 mm 1 mps 744 mmHg 66%
17:00 +12°C° 0 mm 1 mps 744 mmHg 68%
18:00 +12°C° 0 mm 1 mps 744 mmHg 70%
19:00 +11°C° 0 mm 1 mps 744 mmHg 72%
20:00 +11°C° 0 mm 1 mps 745 mmHg 73%
21:00 +10°C° 0 mm 1 mps 745 mmHg 74%
22:00 +10°C° 0 mm 1 mps 745 mmHg 75%
23:00 +10°C° 0 mm 1 mps 745 mmHg 76%

Day after tomorrow, 22 October, Thursday

Time Temperature Precipitation Wind Pressure Humidity
00:00 +9°C° 0 mm 1 mps 745 mmHg 76%
01:00 +9°C° 0 mm 1 mps 745 mmHg 77%
02:00 +9°C° 0 mm 1 mps 745 mmHg 78%
03:00 +8°C° 0 mm 1 mps 745 mmHg 79%
04:00 +8°C° 0 mm 1 mps 745 mmHg 79%
05:00 +8°C° 0 mm 1 mps 745 mmHg 80%
06:00 +8°C° 0 mm 1 mps 745 mmHg 80%
07:00 +8°C° 0 mm 1 mps 745 mmHg 80%
08:00 +9°C° 0 mm 2 mps 745 mmHg 75%
09:00 +10°C° 0 mm 2 mps 746 mmHg 71%
10:00 +13°C° 0 mm 2 mps 746 mmHg 66%
11:00 +13°C° 0 mm 2 mps 746 mmHg 65%
12:00 +14°C° 0 mm 2 mps 745 mmHg 64%
13:00 +15°C° 0 mm 2 mps 745 mmHg 63%
14:00 +14°C° 0 mm 1 mps 745 mmHg 66%
15:00 +14°C° 0 mm 1 mps 744 mmHg 70%
16:00 +13°C° 0 mm 1 mps 744 mmHg 73%
17:00 +13°C° 0 mm 1 mps 744 mmHg 76%
18:00 +12°C° 0 mm 1 mps 744 mmHg 79%
19:00 +11°C° 0 mm 1 mps 744 mmHg 81%
20:00 +11°C° 0 mm 1 mps 744 mmHg 83%
21:00 +10°C° 0 mm 1 mps 744 mmHg 84%
22:00 +10°C° 0 mm 1 mps 744 mmHg 85%
23:00 +10°C° 0 mm 1 mps 743 mmHg 86%

23 October, Friday

Time Temperature Precipitation Wind Pressure Humidity
00:00 +10°C° 0 mm 1 mps 743 mmHg 87%
01:00 +9°C° 0 mm 1 mps 743 mmHg 89%
02:00 +9°C° 0 mm 1 mps 743 mmHg 90%
03:00 +9°C° 0 mm 1 mps 743 mmHg 91%
04:00 +9°C° 0 mm 1 mps 742 mmHg 92%
05:00 +9°C° 0 mm 1 mps 742 mmHg 92%
06:00 +9°C° 0 mm 1 mps 742 mmHg 92%
07:00 +9°C° 0 mm 1 mps 742 mmHg 93%
08:00 +10°C° 0 mm 1 mps 742 mmHg 85%
09:00 +12°C° 0 mm 1 mps 742 mmHg 78%
10:00 +13°C° 0 mm 2 mps 742 mmHg 71%
11:00 +14°C° 0 mm 2 mps 741 mmHg 70%
12:00 +15°C° 0 mm 2 mps 741 mmHg 69%
13:00 +15°C° 0 mm 2 mps 741 mmHg 68%
14:00 +15°C° 0 mm 1 mps 740 mmHg 71%
15:00 +15°C° 0 mm 1 mps 740 mmHg 74%
16:00 +13°C° 0 mm 0 mps 740 mmHg 76%
17:00 +13°C° 0 mm 0 mps 740 mmHg 79%
18:00 +12°C° 0 mm 0 mps 740 mmHg 82%
19:00 +12°C° 0 mm 1 mps 740 mmHg 84%
20:00 +12°C° 0 mm 1 mps 740 mmHg 85%
21:00 +12°C° 0 mm 1 mps 739 mmHg 86%
22:00 +12°C° 0 mm 1 mps 739 mmHg 87%
23:00 +12°C° 0 mm 1 mps 739 mmHg 87%

24 October, Saturday

Time Temperature Precipitation Wind Pressure Humidity
00:00 +12°C° 0 mm 1 mps 739 mmHg 87%
01:00 +12°C° 0 mm 1 mps 739 mmHg 88%
02:00 +12°C° 0 mm 1 mps 739 mmHg 88%
03:00 +12°C° 0 mm 1 mps 739 mmHg 88%
04:00 +12°C° 0 mm 1 mps 739 mmHg 88%
05:00 +12°C° 0 mm 1 mps 739 mmHg 89%
06:00 +12°C° 0 mm 1 mps 739 mmHg 90%
07:00 +12°C° 0 mm 2 mps 739 mmHg 91%
08:00 +12°C° 0 mm 3 mps 739 mmHg 86%
09:00 +13°C° 0 mm 3 mps 740 mmHg 81%
10:00 +14°C° 0 mm 4 mps 740 mmHg 77%
11:00 +15°C° 0 mm 5 mps 740 mmHg 73%
12:00 +16°C° 0 mm 5 mps 740 mmHg 69%
13:00 +16°C° 0 mm 6 mps 741 mmHg 65%
14:00 +16°C° 0 mm 5 mps 741 mmHg 66%
15:00 +15°C° 0 mm 5 mps 741 mmHg 67%
16:00 +14°C° 0 mm 5 mps 741 mmHg 68%
17:00 +13°C° 0 mm 5 mps 741 mmHg 69%
18:00 +12°C° 0 mm 5 mps 741 mmHg 69%
19:00 +10°C° 0 mm 5 mps 742 mmHg 69%
20:00 +11°C° 0 mm 4 mps 742 mmHg 71%
21:00 +10°C° 0 mm 4 mps 742 mmHg 72%
22:00 +10°C° 0 mm 4 mps 743 mmHg 73%
23:00 +9°C° 0 mm 3 mps 743 mmHg 73%

25 October, Sunday

Time Temperature Precipitation Wind Pressure Humidity
00:00 +8°C° 0 mm 3 mps 743 mmHg 73%
01:00 +8°C° 0 mm 3 mps 743 mmHg 73%
02:00 +8°C° 0 mm 2 mps 743 mmHg 74%
03:00 +8°C° 0 mm 2 mps 743 mmHg 75%
04:00 +7°C° 0 mm 2 mps 743 mmHg 76%
05:00 +9°C° 0 mm 1 mps 743 mmHg 76%
06:00 +9°C° 0 mm 1 mps 743 mmHg 76%
07:00 +9°C° 0 mm 1 mps 744 mmHg 76%
08:00 +10°C° 0 mm 1 mps 744 mmHg 72%
09:00 +12°C° 0 mm 1 mps 744 mmHg 67%
10:00 +13°C° 0 mm 1 mps 744 mmHg 63%
11:00 +14°C° 0 mm 1 mps 744 mmHg 60%
12:00 +15°C° 0 mm 1 mps 744 mmHg 56%
13:00 +16°C° 0 mm 1 mps 744 mmHg 53%
14:00 +15°C° 0 mm 1 mps 743 mmHg 57%
15:00 +14°C° 0 mm 1 mps 743 mmHg 60%
16:00 +12°C° 0 mm 0 mps 743 mmHg 64%
17:00 +11°C° 0 mm 0 mps 743 mmHg 67%
18:00 +11°C° 0 mm 0 mps 743 mmHg 70%
19:00 +10°C° 0 mm 0 mps 743 mmHg 73%
20:00 +10°C° 0 mm 1 mps 743 mmHg 74%
21:00 +10°C° 0 mm 1 mps 743 mmHg 76%
22:00 +9°C° 0 mm 1 mps 743 mmHg 78%
23:00 +9°C° 0 mm 1 mps 743 mmHg 79%
Show more